TimePDT,TemperatureF,Dew PointF,Humidity,Sea Level PressureIn,VisibilityMPH,Wind Direction,Wind SpeedMPH,Gust SpeedMPH,PrecipitationIn,Events,Conditions,WindDirDegrees,DateUTC
12:53 AM,64.9,44.1,47,29.77,10.0,Calm,Calm,-,N/A,,Clear,0,2013-09-09 07:53:00
1:53 AM,64.0,46.9,54,29.78,10.0,Calm,Calm,-,N/A,,Clear,0,2013-09-09 08:53:00
2:53 AM,64.9,46.9,52,29.75,10.0,Calm,Calm,-,N/A,,Clear,0,2013-09-09 09:53:00
3:53 AM,62.1,46.0,56,29.75,10.0,East,3.5,-,N/A,,Clear,90,2013-09-09 10:53:00
4:53 AM,61.0,50.0,67,29.75,10.0,WNW,3.5,-,N/A,,Clear,300,2013-09-09 11:53:00
5:53 AM,62.1,57.9,86,29.78,9.0,NW,3.5,-,N/A,,Clear,310,2013-09-09 12:53:00
6:53 AM,62.1,54.0,75,29.78,9.0,Calm,Calm,-,N/A,,Clear,0,2013-09-09 13:53:00
7:53 AM,69.1,55.9,63,29.79,10.0,Calm,Calm,-,N/A,,Clear,0,2013-09-09 14:53:00
8:53 AM,78.1,51.1,39,29.79,10.0,Calm,Calm,-,N/A,,Clear,0,2013-09-09 15:53:00
9:53 AM,82.9,48.0,29,29.79,10.0,WNW,3.5,-,N/A,,Clear,300,2013-09-09 16:53:00
10:53 AM,87.1,48.9,27,29.78,10.0,WNW,8.1,-,N/A,,Clear,300,2013-09-09 17:53:00
11:53 AM,87.1,55.0,33,29.77,10.0,West,9.2,-,N/A,,Clear,270,2013-09-09 18:53:00
12:53 PM,87.1,55.0,33,29.77,10.0,West,9.2,-,N/A,,Clear,270,2013-09-09 19:53:00
1:53 PM,89.1,50.0,26,29.75,10.0,West,12.7,-,N/A,,Clear,270,2013-09-09 20:53:00
2:53 PM,86.0,52.0,31,29.75,10.0,West,10.4,-,N/A,,Clear,270,2013-09-09 21:53:00
3:53 PM,84.0,50.0,31,29.74,10.0,WNW,9.2,-,N/A,,Clear,290,2013-09-09 22:53:00
4:53 PM,80.1,50.0,35,29.74,10.0,West,4.6,-,N/A,,Clear,280,2013-09-09 23:53:00
5:53 PM,80.1,46.0,30,29.75,10.0,WNW,5.8,-,N/A,,Clear,290,2013-09-10 00:53:00
6:53 PM,75.0,54.0,48,29.77,10.0,WNW,9.2,-,N/A,,Partly Cloudy,300,2013-09-10 01:53:00
7:53 PM,72.0,55.0,55,29.75,10.0,West,4.6,-,N/A,,Clear,270,2013-09-10 02:53:00
8:53 PM,68.0,57.0,68,29.77,10.0,WNW,6.9,-,N/A,,Clear,300,2013-09-10 03:53:00
9:53 PM,64.9,57.0,75,29.80,10.0,West,3.5,-,N/A,,Clear,280,2013-09-10 04:53:00
10:53 PM,64.0,57.0,78,29.79,10.0,Calm,Calm,-,N/A,,Clear,0,2013-09-10 05:53:00
11:53 PM,63.0,57.0,81,29.79,10.0,WNW,3.5,-,N/A,,Clear,290,2013-09-10 06:53:00